Regional Weather Roundup
Issued by NWS Sterling, VA

Home | Current Version | Previous Version | Text Only | Print | Product List | Glossary On
Versions: 1 2 3 4 5 6 7 8 9 10 11 12 13 14 15 16 17 18 19 20 21 22 23 24 25 26 27 28 29 30 31 32 33 34 35 36 37 38 39 40 41 42 43 44 45 46 47 48 49 50
000
ASUS41 KLWX 101510
RWRLWX

REGIONAL WEATHER ROUNDUP
NATIONAL WEATHER SERVICE BALTIMORE MD/WASHINGTON DC
1000 AM EST WED FEB 10 2016

Note: "FAIR" indicates few or no clouds below 12,000 feet
with no significant weather and/or obstructions to visibility.
 TC=TEMPERATURE CELSIUS

 * =Non NWS site. Station does not report precipitation (e.g. rain,
    snow, etc.), thunder, or fog.

DCZ001-MDZ009-015-VAZ040>042-051-053>054-101600-
WASHINGTON METRO

CITY           SKY/WX    TMP DP  RH WIND       PRES   REMARKS
WASHINGTON NAT PTSUNNY   33  15  47 NW17G29   29.83R WCI  22
DULLES         PTSUNNY   31  14  49 NW20G25   29.81R WCI  19
ANDREWS AFB    MOSUNNY   32  15  49 NW20G26   29.79R WCI  20
FT BELVOIR     PTSUNNY   33  14  46 NW14G21   29.82R WCI  23
QUANTICO       FAIR      36  17  46 NW9       29.84S WCI  29
COLLEGE PARK*  CLOUDY    32  18  55 W10G21    29.81R WCI  24
LEESBURG*      CLOUDY    32  23  69 NW22G30   29.81S WCI  19
MANASSAS*      PTSUNNY   34  18  51 NW10      29.82R WCI  26
GAITHERSBURG*  CLOUDY    28  16  59 W10G21    29.82R WCI  19

$$

MDZ006>007-011-014-101600-
BALTIMORE METRO

CITY           SKY/WX    TMP DP  RH WIND       PRES   REMARKS
BWI AIRPORT    PTSUNNY   32  16  51 W18G31    29.78S WCI  20
MD SCIENCE CTR   N/A     33  16  49 MISG      29.79R
MARTIN STATE   PTSUNNY   34  23  64 W16G23    29.80R WCI  23
ANNAPOLIS      CLOUDY    33  18  53 NW13G20   29.79S WCI  24
FORT MEADE*    CLOUDY    32  19  59 NW16G22   29.82R WCI  21

$$

MDZ012-015-019>023-101600-
MARYLAND EASTERN SHORE

CITY           SKY/WX    TMP DP  RH WIND       PRES   REMARKS
OCEAN CITY     MOSUNNY   33  26  75 W17       29.78S WCI  22
SALISBURY      MOSUNNY   33  24  69 W13G23    29.79S WCI  24
BAY BRIDGE AP*   N/A     32  18  55 NW21      29.80S WCI  20
CAMBRIDGE*     CLOUDY    32  19  59 NW12      29.80R WCI  23
EASTON*        PTSUNNY   32  21  64 NW9G18    29.83R WCI  24

$$

MDZ017>025-101600-
SOUTHERN MARYLAND

CITY           SKY/WX    TMP DP  RH WIND       PRES   REMARKS
PATUXENT RIVER MOSUNNY   34  21  59 NW14      29.82R WCI  25
ST INIGOES     MOSUNNY   34  22  61 W13G20    29.81S WCI  25
LEONARDTOWN*   MOSUNNY   34  19  55 W12       29.82S WCI  25

$$

MDZ003>005-101600-
NORTH CENTRAL MARYLAND

CITY           SKY/WX    TMP DP  RH WIND       PRES   REMARKS
FREDERICK*     PTSUNNY   30  19  64 W17G23    29.83R WCI  18
HAGERSTOWN APT CLOUDY    28  15  58 W12       29.77R WCI  18
WESTMINSTER*   CLOUDY    28  23  80 W16       29.74S WCI  17

$$

MDZ501>502-101600-
WESTERN MARYLAND

CITY           SKY/WX    TMP DP  RH WIND       PRES   REMARKS
OAKLAND*       FOG       14  10  85 W13G20    29.66R VSB 1   WCI   0
CUMBERLAND*    PTSUNNY   28  18  64 SW6       29.85R

$$

VAZ025>031-101600-
SHENANDOAH VALLEY

CITY           SKY/WX    TMP DP  RH WIND       PRES   REMARKS
WINCHESTER*    CLOUDY    32  16  51 W13G22    29.80R WCI  22
FRONT ROYAL*   PTSUNNY   30  14  51 W6G16     29.79S
LURAY*         PTSUNNY   32  14  47 W16G22    29.80S WCI  21
NEW MARKET*    CLOUDY    29  13  50 W8        29.80S WCI  21
STAUNTON*      FAIR      33  14  46 W10       29.82S WCI  24
WAYNESBORO*    FAIR      27   9  46 SW10G18   29.80R WCI  17

$$

WVZ021-048>050-054>055-101600-
EASTERN WEST VIRGINIA PANHANDLE

CITY           SKY/WX    TMP DP  RH WIND       PRES   REMARKS
MARTINSBURG    PTSUNNY   29  14  53 W16G25    29.79R WCI  17
PETERSBURG*    CLOUDY    26  12  55 CALM      29.83R

$$

VAZ036>039-050-101600-
CENTRAL FOOTHILLS

CITY           SKY/WX    TMP DP  RH WIND       PRES   REMARKS
CHARLOTTESVILL FAIR      33  11  39 SW12      29.82R WCI  24
CULPEPER*      FAIR      33  15  46 NW6       29.83S
ORANGE*        FAIR      34  14  44 SW14      29.84R WCI  24
GORDONSVILLE*  FAIR      33  12  42 W6G16     29.82S
WARRENTON*     FAIR      35  21  56 W8        29.82S WCI  28

$$

VAZ055>057-101600-
NORTH AND CENTRAL PIEDMONT

CITY           SKY/WX    TMP DP  RH WIND       PRES   REMARKS
FREDERICKSBRG* FAIR      34  22  61 W9        29.83S WCI  26
STAFFORD*      FAIR      33  17  50 W7        29.87S

$$

NCZ024-NYZ072-PAZ021-071-VAZ022-071-101600-
OTHER REGIONAL OBSERVATIONS

CITY           SKY/WX    TMP DP  RH WIND       PRES   REMARKS
NEW YORK CITY  CLOUDY    35  28  75 W6        29.65R
PHILADELPHIA   CLOUDY    32  25  75 W17       29.73S WCI  21
PITTSBURGH     LGT SNOW  18  11  74 SW13G23   29.79R WCI   5
ROANOKE        CLOUDY    25   9  50 NW22      29.89R WCI  10
RICHMOND       FAIR      32  17  54 W13       29.85R WCI  22
RALEIGH        SUNNY     32  14  47 NW9       29.93S WCI  24

$$

ANZ530>537-101600-
MARINE OBSERVATIONS

STATION/POSITION TIME  TEMP    WIND        PRES
                       AIR SEA DIR/SP/G
                 (UTC) (F)     (DEG/KT/KT) (MB)
THOMAS PT LIGHT  1500   32 38  310/ 16/ 18 1009.6R
BALT KEY BRIDGE  1400   32     280/ 20/ 24 1008.2R
COVE POINT       1400   31     310/  9/ 12 1010.0R
LEWISETTA        1400   32 40  280/ 10/ 14 1009.6R
SOLOMONS ISLAND  1400   34 40  270/  9/ 11   N/A
PINEY POINT      1400          290/ 11/ 12   N/A

$$




USA.gov is the U.S. government's official web portal to all federal, state and local government web resources and services.